Weather History for Douglas Bisbee, AZ

Change the Weather History Date:

Friday, May 10, 2013

  Actual Average Record
Temperature  
Mean Temperature 64 °F 68 °F  
Max Temperature 77 °F 86 °F 97 °F (2009)
Min Temperature 50 °F 50 °F 32 °F (1953)
Degree Days  
Heating Degree Days 1 1  
Month to date heating degree days 1 13  
Since 1 July heating degree days 2558 2514  
Cooling Degree Days 0 4  
Month to date cooling degree days 21 33  
Year to date cooling degree days 50 63  
Growing Degree Days 12 (Base 50)    
Moisture  
Dew Point 28 °F    
Average Humidity 26    
Maximum Humidity 36    
Minimum Humidity 15    
Precipitation  
Precipitation 0.00 in 0.01 in 0.04 in (1994)
Month to date precipitation 0.00 0.09  
Year to date precipitation 0.87 2.21  
Snow  
Snow 0.00 in - - ()
Month to date snowfall 0.0  
Snow Depth 0.00 in    
Sea Level Pressure  
Sea Level Pressure 29.94 in    
Wind  
Wind Speed 8 mph (North)    
Max Wind Speed 30 mph    
Max Gust Speed 43 mph    
Visibility 10 miles    
Events      
T = Trace of Precipitation, MM = Missing Value Source: NWS Daily Summary

Daily Weather History Graph

Daily Weather History Graph

Search for Another Location

Airport:

Trip Planner

Search our weather history database for the weather conditions in past years. The results will help you decide how hot, cold, wet, or windy it might be!

Date:

Astronomy

May. 10, 2013 Rise Set
Actual Time 5:25 AM MST 7:04 PM MST
Civil Twilight 4:59 AM MST 7:30 PM MST
Nautical Twilight 4:27 AM MST 8:02 PM MST
Astronomical Twilight 3:54 AM MST 8:36 PM MST
Moon 5:52 AM MST (5/10) 7:55 PM MST (5/10)
Length of Visible Light 14h 31m
Length of Day
13h 39m
New Moon, 1% of the Moon is Illuminated
May 10
New Moon
May 17
First Quarter
May 24
Full
May 31
Last Quarter
Jun 8
New

Hourly Weather History & Observations

Time (MST) Temp. Dew Point Humidity Pressure Visibility Wind Dir Wind Speed Gust Speed Precip Events Conditions
12:56 AM 57.0 °F 25.0 °F 29% 29.89 in 10.0 mi NNW 9.2 mph - N/A   Clear
1:56 AM 54.0 °F 23.0 °F 30% 29.89 in 10.0 mi NNW 9.2 mph - N/A   Clear
2:56 AM 53.1 °F 23.0 °F 31% 29.89 in 10.0 mi NNW 9.2 mph - N/A   Clear
3:56 AM 50.0 °F 21.9 °F 33% 29.90 in 10.0 mi NNE 8.1 mph - N/A   Clear
4:56 AM 52.0 °F 24.1 °F 34% 29.90 in 10.0 mi North 10.4 mph - N/A   Clear
5:56 AM 52.0 °F 24.1 °F 34% 29.91 in 10.0 mi North 10.4 mph - N/A   Clear
6:56 AM 61.0 °F 28.0 °F 29% 29.92 in 10.0 mi NNW 4.6 mph - N/A   Clear
7:56 AM 64.9 °F 30.9 °F 28% 29.93 in 10.0 mi NW 4.6 mph - N/A   Clear
8:56 AM 69.1 °F 27.0 °F 21% 29.93 in 10.0 mi Calm Calm - N/A   Clear
9:56 AM 73.0 °F 25.0 °F 17% 29.93 in 10.0 mi East 8.1 mph - N/A   Clear
10:56 AM 75.0 °F 26.1 °F 16% 29.92 in 10.0 mi East 11.5 mph - N/A   Clear
11:56 AM 75.0 °F 26.1 °F 16% 29.90 in 10.0 mi Variable 4.6 mph - N/A   Scattered Clouds
12:56 PM 73.9 °F 24.1 °F 16% 29.90 in 10.0 mi Variable 3.5 mph - N/A   Clear
1:56 PM 73.9 °F 27.0 °F 18% 29.91 in 10.0 mi NNE 5.8 mph - N/A   Clear
2:56 PM 75.9 °F 25.0 °F 15% 29.89 in 10.0 mi NNE 13.8 mph 17.3 mph N/A   Clear
3:56 PM 75.0 °F 24.1 °F 15% 29.90 in 10.0 mi NNE 11.5 mph 21.9 mph N/A   Clear
4:47 PM 69.8 °F 33.8 °F 27% 30.08 in 10.0 mi WSW 25.3 mph 36.8 mph N/A   Overcast
4:56 PM 70.0 °F 33.1 °F 26% 29.95 in 10.0 mi WSW 19.6 mph 33.4 mph N/A   Mostly Cloudy
5:56 PM 66.0 °F 35.1 °F 32% 29.99 in 10.0 mi South 17.3 mph 27.6 mph N/A   Overcast
6:56 PM 68.0 °F 30.9 °F 25% 29.98 in 10.0 mi Variable 3.5 mph - N/A   Clear
7:56 PM 66.0 °F 34.0 °F 30% 29.99 in 10.0 mi NW 3.5 mph - N/A   Scattered Clouds
8:56 PM 63.0 °F 34.0 °F 34% 30.01 in 10.0 mi North 3.5 mph - N/A   Clear
9:56 PM 61.0 °F 33.1 °F 35% 30.02 in 10.0 mi Calm Calm - N/A   Clear
10:56 PM 55.0 °F 28.9 °F 37% 30.04 in 10.0 mi NNE 5.8 mph - N/A   Clear
11:56 PM 54.0 °F 28.9 °F 38% 30.03 in 10.0 mi South 6.9 mph - N/A   Clear